Location: Ch�risy
(50.2331°N, 2.9131°E)
Time: 02:02:35
(UTC+00:00)

CZ-4C R/B - Pass Details

Date: 17 January 2021
Orbit: 617 x 1385 km, 63.4° (Epoch: 28 February)

Event Time Altitude Azimuth Distance (km) Brightness Sun altitude
Rises 19:04:23 0° 264° (W) 3,197 6.6 -26.1°
Reaches altitude 10° 19:06:50 10° 274° (W) 2,372 5.5 -26.5°
Maximum altitude 19:11:47 33° 339° (NNW) 1,484 3.6 -27.3°
Enters shadow 19:13:45 27° 12° (NNE) 1,736 3.7 -27.6°
